Torna al catalogo

STARLINK-35012

AttivoComunicazioniSSO
NORAD 65384·PAYLOAD·🇺🇸 United States

Lanciato Aug 30, 2025 da Vandenberg Space Force Base

Loading…

Prossimi Passaggi (prossime 24 ore)

TLE

AggiornatoSource: CelesTrak SupGP

Epoca: Sep 15, 2026, 03:25 UTC

1 65384C 25191F   26258.14284722 -.00029716  00000+0 -92212-3 0  2580
2 65384  97.2843 124.3206 0001897  95.2155 240.1428 15.33465360    19

Traccia STARLINK-35012 in tempo reale con AllMySat

Download on the App Store